Regional Weather Roundup
Issued by NWS San Diego, CA

Home | Current Version | Previous Version | Text Only | Print | Product List | Glossary On
Versions: 1 2 3 4 5 6 7 8 9 10 11 12 13 14 15 16 17 18 19 20 21 22 23 24 25 26 27 28 29 30 31 32 33 34 35 36 37 38 39 40 41 42 43 44 45 46 47 48 49 50
000
ASUS46 KSGX 260310
RWRSGX

SAN DIEGO HOURLY WEATHER ROUNDUP
NATIONAL WEATHER SERVICE SAN DIEGO CA
700 PM PST SUN JAN 25 2015

NOTE: "FAIR" INDICATES FEW OR NO CLOUDS BELOW 12,000 FEET WITH NO
SIGNIFICANT WEATHER AND/OR OBSTRUCTIONS TO VISIBILITY.

CAZ042-043-060-061-PZZ750-775-260400-

GREATER SAN DIEGO AREA

CITY           SKY/WX    TMP DP  RH WIND       PRES   REMARKS
LINDBERGH FLD  MOCLDY    71  28  20 CALM      30.02R
POINT LOMA       N/A     69  24  18 NE9         N/A
NATIONAL CITY    N/A     67  38  34 CALM      30.01R
BROWN FIELD    MOCLDY    66  26  22 E5        30.01R
MIRAMAR MCAS   MOCLDY    62  31  31 NE6       30.02R
MONTGOMERY FLD MOCLDY    67  31  26 N5        30.02R

$$

NORTH SAN DIEGO COUNTY

CITY           SKY/WX    TMP DP  RH WIND       PRES   REMARKS
CAMP PENDLETON CLOUDY    61  42  49 NE3       30.02R
OCEANSIDE AP   CLOUDY    62  42  47 CALM      30.01R
OCEANSIDE HBR    N/A     67  40  37 NE9       30.03R
VISTA            N/A     62  38  40 CALM      30.00R
CARLSBAD       CLOUDY    67  33  28 CALM      30.01R
DEL MAR          N/A     66  36  32 CALM      30.02S
LA JOLLA SCRIP   N/A     69  32  25 CALM      29.99R
ESCONDIDO        N/A     69  34  27 W1        30.03R
SAN MARCOS       N/A     69  30  23 CALM      30.00R
POWAY            N/A     62  35  36 CALM      30.03R

$$

EAST SAN DIEGO COUNTY

CITY           SKY/WX    TMP DP  RH WIND       PRES   REMARKS
RAMONA         CLOUDY    61  28  28 E8        30.05R
SANTEE LAKES     N/A     63  36  36 NW3       30.03R
LA MESA          N/A     68  33  28 E3        29.96R
JAMUL            N/A     64  33  31 CALM      30.02R
CAMPO            N/A     59  22  24 NE13      30.06R

$$

ORANGE COUNTY AND THE LOS ANGELES BASIN

CITY           SKY/WX    TMP DP  RH WIND       PRES   REMARKS
JOHN WAYNE AP  MOCLDY    71  30  21 CALM      30.01R
LAGUNA BEACH     N/A     64  34  32 N8        29.97R
LAKE FOREST FR   N/A     65  26  23 SE3       29.92R
SANTA ANA        N/A     66  43  42 CALM      29.97R
HUNTINGTON BCH   N/A     62  47  57 CALM      30.02R
LOS ALAMITOS   FAIR      62  39  42 E5        30.01R
FULLERTON      MOCLDY    69  35  28 NE3       30.01R
LONG BEACH     MOCLDY    67  31  26 CALM      30.01R
L.A. AP        MOCLDY    67  39  35 NW7       30.02R
L.A. DOWNTOWN  MOCLDY    67  33  28 CALM      30.01R

$$

THE INLAND EMPIRE

CITY           SKY/WX    TMP DP  RH WIND       PRES   REMARKS
CORONA         MOCLDY    68  30  24 W9        30.02R
CHINO          MOCLDY    64  36  35 W10       30.03R
ONTARIO        MOCLDY    74  28  18 W3        30.02R
SAN BERNARDINO MOCLDY    59  34  38 NE6       30.04R
RIVERSIDE AP   MOCLDY    67  32  27 CALM      30.03R
MARCH ARB      MOCLDY    67  31  26 S5        30.05R
FRENCH VALLEY  FAIR      64  28  25 CALM      30.05R

$$

SAN BERNARDINO AND RIVERSIDE COUNTY MOUNTAINS

CITY           SKY/WX    TMP DP  RH WIND       PRES   REMARKS
BIG BEAR AP    CLOUDY    36  23  60 CALM      30.28R
PINE COVE        N/A     53  14  21 S3        30.06R

$$

SOUTHERN DESERT INCLUDING THE COACHELLA VALLEY

CITY           SKY/WX    TMP DP  RH WIND       PRES   REMARKS
PALM SPRINGS   CLOUDY    74  29  19 NW6       30.06R
PALM DESERT      N/A     70  33  25 W3        30.51S
THERMAL        CLOUDY    61  33  35 CALM      30.01R
BLYTHE         MOCLDY    63  34  33 W5        30.03R
IMPERIAL AP    MOCLDY    64  34  32 SW6       30.03R
EL CENTRO NAS  MOCLDY    65  26  23 SW6       30.03R
YUMA AZ        MOCLDY    63  36  36 CALM      30.04R
MEXICALI       MOCLDY    66  30  26 CALM      30.04R

$$

UPPER DESERT

CITY           SKY/WX    TMP DP  RH WIND       PRES   REMARKS
VICTORVILLE AP CLOUDY    57  28  33 CALM      30.14R
HESPERIA         N/A     61  31  32 CALM      30.27S
APPLE VALLEY     N/A     61  27  27 CALM      30.15R
PALMDALE       CLOUDY    55  33  43 E9        30.12R
LANCASTER      CLOUDY    53  35  50 CALM      30.12R
EDWARDS AFB    CLOUDY    56  32  40 SE8       30.10R
DAGGETT        CLOUDY    59  29  31 CALM      30.11R
29 PALMS N     CLOUDY    60  29  30 W9        30.18R
NEEDLES        MOCLDY    70  29  21 N9        30.06R

$$

REGIONAL REPORTS

CITY           SKY/WX    TMP DP  RH WIND       PRES   REMARKS
SANTA BARBARA  PTCLDY    61  45  55 N5        30.01R
SANDBERG       MOCLDY    57  26  30 SE5       30.18R
MT. WILSON       N/A     50  18  27 MISG        N/A
LAS VEGAS NV   PTCLDY    63  32  31 SW8       30.11S
PHOENIX AZ     MOCLDY    63  29  27 E3        30.06R
TIJUANA        MOCLDY    70  19  14 E9        30.03R

$$

OFFSHORE ISLANDS

CITY           SKY/WX    TMP DP  RH WIND       PRES   REMARKS
CATALINA ARPT  MOCLDY    68  20  16 NE5       30.06R
SAN NICOLAS IS CLOUDY   N/A N/A N/A SW8       30.01R

$$

MARINE AND OFFSHORE BUOY REPORTS

STATION/POSITION SKY/WX   TEMP    WIND        PRES    SWELL
                          AIR SEA DIR/SP/G            HT/PER/DIR
                          (F)     (DEG/KT/KT) (MB)    (FT/S/D)
TANNER BANKS               64 63   60/  4/  6 1015.6R   8/270/15
S CLEMENTE BASIN           65 63  320/  4/  4 1015.8R   5/280/15
SAN NICOLAS IS.               64                N/A     7/280/14
SO. S. ROSA ISLA           63 62   20/  8/ 10 1014.8S   8/15
W. S. BARBARA CH           64 61  320/  2/  4 1015.5R   7/280/15
S. MONICA BASIN            66 63  350/  4/  4 1016.0R   3/280/16
S PEDRO CHANNEL               62                N/A     3/270/15
DANA POINT                    62                N/A     3/280/17
CMP PENDLETON NS              62                N/A     3/250/15
OCEANSIDE OFFSHR              63                N/A     3/260/13
TORREY PINES OTR              62                N/A     3/270/15
LA JOLLA 1                 70 62  160/  5/  5 1016.2R
MISSION BAY BUOY              63                N/A     3/280/15
SAN DIEGO BAY                 62              1016.5R
POINT LOMA SOUTH              63                N/A     5/270/17

$$




USA.gov is the U.S. government's official web portal to all federal, state and local government web resources and services.